Wind_Speed
19 20 20 20 19 20 21 22 22 21 23 23 25 25 25 25 25 26 27 28 29 29 30 31 31 32 33 33 34 34 35 34 35 35 35 36 36 37 37 38 39 39 40 42
19 20 20 20 20 21 21 22 22 23 23 24 25 25 26 27 26 27 27 27 28 29 30 30 30 31 31 31 31 32 32 32 32 33 33 33 34 35 36 37 38 39 39 40
20 20 20 19 18 20 20 21 21 22 23 24 24 25 26 26 26 26 27 27 27 27 27 27 27 28 29 29 29 30 30 30 31 31 30 30 31 32 33 34 35 36 36 37
20 20 19 17 18 19 19 19 20 20 21 23 24 24 25 25 25 26 26 26 26 25 25 26 26 27 27 27 27 27 28 29 30 29 29 29 29 30 31 32 33 33 33 33
20 20 19 17 17 18 19 19 19 20 21 22 23 23 23 24 24 25 25 25 24 24 24 25 25 26 26 26 26 26 27 27 27 27 28 28 28 29 30 30 31 31 31 31
20 21 20 18 18 18 19 19 19 20 21 22 22 22 22 23 23 24 24 24 24 24 24 24 24 24 24 24 24 25 26 26 25 26 26 27 28 29 29 29 29 30 30 29
21 21 20 19 19 19 20 20 20 20 21 21 21 22 22 23 22 23 23 23 24 24 24 23 23 23 23 23 23 24 24 23 24 24 25 26 27 28 28 28 28 28 27 27
21 22 20 20 21 20 20 20 21 21 21 21 21 22 22 22 22 22 22 23 23 23 23 23 23 23 23 23 23 23 23 22 22 23 25 25 26 26 26 26 26 25 25 24
20 20 21 21 21 21 21 21 21 22 22 22 22 23 22 22 23 22 22 23 23 24 24 24 24 23 22 22 23 23 23 22 22 23 23 24 24 24 24 23 23 23 23 23
20 20 21 21 21 21 22 21 21 21 22 23 23 23 23 23 23 23 23 23 23 24 24 24 24 23 22 22 22 22 23 23 24 23 22 22 22 22 22 22 21 21 21 20
21 21 21 21 21 21 22 22 22 22 22 23 23 23 23 23 23 24 23 23 24 24 23 23 23 22 21 21 20 21 21 22 22 22 22 21 21 20 19 19 19 19 18 18
20 21 21 21 21 21 22 22 22 22 22 22 23 23 23 23 23 23 22 22 22 22 22 22 21 20 19 19 19 19 19 19 20 20 19 19 19 18 17 17 16 16 15 15
20 21 21 20 20 21 21 21 21 22 22 22 22 22 22 22 22 22 21 21 21 21 21 20 19 18 17 17 17 16 16 16 16 16 16 16 15 15 14 14 14 14 13 14
21 21 20 20 20 20 21 21 21 21 21 21 21 21 20 20 20 21 21 20 19 19 19 18 16 16 16 16 15 15 15 14 14 13 13 13 12 12 12 12 12 12 12 13
20 21 20 20 19 19 20 20 19 19 19 18 19 18 18 18 18 18 18 18 18 17 17 16 15 15 15 16 15 15 15 14 14 13 13 12 12 12 11 11 11 10 10 10
20 19 19 19 18 18 18 18 17 17 17 17 16 16 16 16 16 16 17 16 16 15 15 15 15 14 14 15 15 14 14 14 14 14 13 12 11 10 10 10 10 10 10 10
19 18 17 16 16 16 16 16 16 16 15 15 16 16 15 15 15 15 15 15 14 14 14 14 14 14 13 13 13 13 13 13 13 12 12 11 10 10 9 9 9 9 8 8
17 16 15 15 15 15 15 15 15 15 15 15 15 14 14 15 15 14 14 14 14 14 14 14 13 13 13 13 13 13 13 12 12 11 10 10 10 9 9 8 8 8 8 7
16 15 15 15 15 14 15 14 14 13 13 14 14 14 14 14 14 13 13 13 13 13 14 14 14 13 13 13 13 13 12 12 11 11 10 10 10 9 9 9 9 8 8 7
14 14 14 13 13 13 13 13 13 13 13 13 13 13 13 13 13 13 13 13 13 13 14 14 14 13 13 13 13 12 12 11 10 10 10 10 9 9 9 8 8 8 8 8
13 13 13 13 13 13 13 12 12 12 13 13 13 13 12 12 13 13 13 13 13 13 13 13 13 13 13 13 12 12 11 10 9 9 9 9 9 9 8 8 8 8 8 8
12 12 12 12 11 11 11 11 11 12 12 13 13 13 12 13 13 13 13 13 13 13 13 13 13 13 12 12 11 11 10 9 9 9 9 9 9 8 7 7 8 8 8 8
12 12 11 12 11 12 12 12 12 12 13 13 13 13 13 13 13 13 12 12 12 13 13 13 13 13 12 12 11 10 10 10 10 9 9 8 7 7 7 7 8 8 8 8
12 12 12 12 12 12 13 13 13 13 14 14 14 14 14 13 13 12 12 12 13 14 14 14 13 13 12 12 11 11 11 10 10 9 8 8 8 8 8 8 8 8 8 8
12 13 13 14 14 14 14 14 14 14 15 15 15 15 15 14 14 13 13 13 13 14 14 14 13 13 12 12 12 11 11 11 10 9 8 9 9 8 8 8 8 8 8 8
13 14 14 15 15 15 14 14 15 15 16 16 16 16 15 15 14 13 13 14 13 13 14 14 13 13 13 13 12 11 11 10 10 10 9 9 9 9 9 8 8 8 8 8
14 15 15 15 16 16 16 16 16 16 17 17 16 16 15 14 14 13 13 13 13 13 13 13 13 13 12 12 11 11 10 10 10 10 10 10 9 9 9 8 8 8 8 8
Wind_Direction
281 280 280 279 276 275 274 273 274 276 278 279 281 283 285 287 287 287 287 286 286 285 284 281 278 278 278 277 277 277 276 276 276 276 274 273 273 272 272 274 274 274 273 273
282 280 279 279 278 275 275 275 276 279 280 282 284 285 286 287 287 289 289 289 288 286 285 283 280 280 281 280 279 278 277 276 276 276 276 274 274 273 273 274 275 275 274 273
285 282 281 281 280 278 278 279 280 281 284 284 286 288 289 289 287 289 290 290 289 288 287 285 283 283 282 283 282 281 280 278 278 279 277 275 275 276 276 277 277 276 275 273
286 283 282 285 282 281 280 279 282 285 286 288 289 290 290 290 290 291 292 291 289 288 288 287 287 287 285 285 285 285 284 281 279 279 278 276 277 278 279 279 279 278 275 274
284 282 283 284 282 280 279 279 281 285 288 291 291 292 291 292 292 292 292 291 289 289 289 289 289 288 287 286 287 287 287 284 282 281 280 278 278 280 281 282 280 279 275 275
283 282 282 284 282 281 281 281 283 287 290 294 294 294 293 292 292 291 291 290 290 291 292 292 292 290 288 287 287 288 287 285 283 282 281 281 281 283 284 283 281 279 276 276
282 282 283 283 281 281 282 285 286 288 291 293 295 297 297 295 294 292 293 292 291 291 292 292 293 292 291 289 290 290 290 286 284 284 284 283 284 284 285 285 283 280 278 278
283 283 285 283 282 282 282 284 287 288 290 293 295 296 297 297 296 296 294 294 293 293 293 293 292 292 291 289 290 291 290 288 287 285 285 284 285 285 287 286 284 281 280 280
283 285 285 284 283 282 282 285 287 288 289 291 293 295 297 298 298 297 296 296 295 295 294 293 294 293 292 292 291 292 291 289 290 290 289 288 286 287 288 288 285 282 281 281
282 284 284 282 282 282 284 286 287 288 290 291 292 295 296 297 298 297 296 298 298 297 295 295 296 295 294 294 294 293 293 291 290 289 289 290 290 289 289 289 286 283 283 282
281 281 282 280 280 282 284 285 286 288 291 291 292 293 294 295 297 297 298 298 299 298 298 298 297 297 296 296 297 297 296 296 293 290 289 289 289 289 289 290 290 286 283 281
283 282 283 282 280 281 283 284 285 287 289 291 293 294 294 295 297 297 298 299 301 299 299 299 298 298 298 300 302 302 301 300 298 296 293 291 289 287 286 287 288 287 285 282
285 284 283 283 282 284 285 286 286 287 289 291 292 295 296 295 296 296 298 299 301 303 302 300 299 299 300 302 305 307 308 308 307 305 302 299 295 292 292 292 293 292 289 286
285 284 283 284 284 285 287 286 286 287 289 290 293 295 296 296 297 297 298 299 302 304 304 302 299 298 300 303 305 307 310 312 312 312 311 310 305 301 301 300 299 297 293 289
284 284 282 283 285 285 286 286 287 289 291 293 295 297 297 298 300 300 299 299 301 303 305 303 299 297 299 300 301 304 308 310 311 311 314 314 310 306 305 304 304 303 299 293
282 282 283 284 286 286 288 289 290 291 292 295 298 299 299 300 302 303 303 302 301 303 305 304 301 300 301 302 302 302 304 307 310 311 311 312 310 309 309 307 307 307 304 299
283 284 284 286 287 286 288 290 291 293 296 298 300 301 300 300 302 303 303 302 302 304 307 308 306 305 306 307 307 306 305 308 311 314 315 313 309 310 312 314 315 314 313 310
283 283 282 285 285 285 288 291 291 293 296 297 300 300 299 299 301 302 302 302 302 303 306 311 311 311 311 311 311 309 308 308 309 311 311 311 311 312 313 312 311 313 315 313
279 279 280 284 285 286 289 292 294 295 296 297 299 298 298 300 303 303 302 302 303 304 306 309 311 313 315 315 313 311 309 307 305 304 305 305 304 306 308 307 307 306 304 304
279 279 281 284 286 285 288 291 294 296 298 300 302 303 303 304 305 305 305 304 304 305 308 309 310 313 316 317 315 312 310 307 304 304 304 303 301 301 302 303 304 302 301 303
278 278 279 283 286 285 287 290 294 297 299 302 304 304 303 305 307 308 306 305 305 306 308 309 310 313 316 316 316 314 313 309 305 305 307 307 307 305 302 302 302 302 299 298
277 277 279 284 287 287 288 291 294 298 302 304 304 305 304 305 306 308 306 305 304 305 306 306 308 309 312 314 315 316 316 312 308 306 305 305 306 304 300 300 301 302 301 298
278 279 281 284 284 285 287 290 293 298 301 302 304 307 307 306 307 308 307 306 305 307 307 307 307 306 308 309 309 307 306 304 302 300 302 304 306 305 305 306 308 308 307 304
278 279 280 283 284 285 286 288 292 297 301 303 305 307 308 307 307 307 307 305 305 307 309 308 307 305 305 305 304 302 300 299 299 297 299 305 308 308 308 309 310 311 312 311
277 278 278 280 283 284 283 285 288 292 298 301 303 305 305 304 305 305 305 305 305 307 307 305 303 302 302 303 301 298 296 295 295 294 296 300 301 303 304 304 307 309 311 312
279 278 278 278 280 281 283 285 286 289 293 296 298 301 301 301 301 302 303 304 305 306 306 304 302 299 298 299 299 297 293 289 288 290 292 296 299 299 300 301 304 307 310 314
280 279 276 277 279 279 280 283 287 290 293 295 297 298 298 298 298 299 302 303 304 306 307 305 302 300 299 299 297 294 292 289 288 290 292 294 295 293 291 295 300 303 306 309
Height
5587 5587 5586 5586 5586 5585 5585 5584 5584 5585 5584 5584 5582 5581 5580 5578 5576 5575 5573 5571 5569 5567 5565 5564 5562 5561 5560 5560 5559 5558 5557 5556 5556 5555 5554 5553 5553 5552 5551 5550 5549 5548 5547 5546
5583 5582 5581 5581 5581 5580 5579 5579 5579 5579 5579 5578 5576 5574 5573 5571 5570 5568 5566 5564 5561 5559 5557 5555 5553 5552 5551 5550 5549 5548 5547 5547 5546 5544 5543 5543 5542 5541 5540 5539 5538 5537 5536 5535
5578 5577 5576 5577 5576 5575 5575 5574 5574 5573 5573 5571 5570 5568 5567 5565 5563 5561 5558 5556 5553 5551 5549 5546 5545 5544 5542 5541 5540 5539 5538 5537 5537 5535 5534 5533 5532 5531 5530 5529 5528 5526 5525 5524
5572 5572 5572 5574 5571 5570 5569 5569 5568 5567 5567 5565 5564 5562 5560 5558 5556 5553 5551 5549 5546 5544 5542 5540 5538 5536 5535 5534 5532 5531 5530 5529 5527 5526 5525 5524 5523 5522 5521 5520 5518 5517 5516 5515
5567 5566 5566 5568 5566 5565 5564 5565 5564 5562 5561 5559 5558 5556 5554 5552 5549 5547 5544 5542 5540 5538 5536 5534 5532 5530 5528 5527 5525 5524 5522 5520 5519 5518 5516 5516 5515 5514 5512 5511 5509 5507 5506 5505
5562 5561 5561 5564 5561 5559 5560 5560 5559 5557 5555 5554 5552 5551 5550 5546 5543 5541 5538 5536 5534 5532 5530 5528 5525 5523 5521 5519 5518 5516 5515 5513 5511 5510 5509 5508 5507 5506 5504 5502 5500 5499 5498 5496
5557 5556 5556 5558 5556 5555 5556 5555 5553 5551 5549 5548 5546 5545 5543 5540 5537 5535 5532 5530 5528 5526 5524 5522 5520 5517 5515 5514 5512 5510 5508 5506 5504 5503 5501 5500 5499 5498 5496 5494 5492 5491 5490 5489
5552 5552 5554 5551 5550 5550 5549 5548 5546 5545 5544 5542 5541 5539 5536 5534 5531 5529 5527 5524 5522 5520 5518 5516 5514 5512 5510 5508 5506 5504 5502 5500 5498 5496 5495 5493 5492 5490 5488 5487 5485 5484 5482 5482
5549 5550 5547 5545 5544 5543 5543 5542 5541 5539 5538 5536 5535 5533 5531 5529 5526 5524 5521 5519 5517 5514 5512 5510 5508 5506 5504 5502 5500 5498 5496 5494 5492 5490 5488 5486 5485 5483 5482 5480 5478 5477 5476 5475
5543 5543 5541 5540 5538 5538 5537 5536 5535 5533 5532 5531 5529 5527 5525 5523 5521 5518 5516 5513 5511 5508 5506 5504 5502 5500 5498 5496 5494 5492 5490 5488 5486 5484 5482 5480 5478 5476 5475 5474 5472 5471 5470 5469
5537 5537 5535 5534 5533 5532 5531 5530 5529 5528 5526 5524 5522 5521 5519 5517 5515 5513 5510 5508 5505 5503 5501 5499 5496 5494 5492 5490 5488 5486 5484 5482 5480 5477 5475 5474 5472 5470 5469 5468 5466 5465 5465 5464
5531 5531 5529 5529 5527 5526 5525 5524 5523 5522 5520 5518 5516 5515 5513 5511 5509 5507 5505 5502 5500 5497 5495 5493 5491 5489 5487 5485 5483 5481 5479 5477 5474 5472 5470 5468 5466 5465 5463 5462 5461 5460 5459 5459
5525 5524 5523 5522 5521 5520 5519 5518 5517 5515 5514 5512 5511 5509 5507 5505 5504 5501 5499 5497 5495 5492 5490 5488 5486 5484 5483 5481 5479 5477 5475 5473 5470 5468 5466 5464 5462 5461 5460 5459 5458 5457 5456 5455
5519 5518 5517 5517 5516 5514 5513 5512 5511 5509 5508 5507 5505 5504 5502 5500 5498 5496 5494 5492 5490 5488 5485 5483 5482 5480 5479 5477 5475 5473 5471 5469 5467 5465 5463 5461 5459 5458 5457 5456 5455 5454 5453 5452
5514 5513 5512 5511 5510 5509 5507 5506 5505 5504 5503 5501 5500 5498 5497 5495 5493 5492 5490 5488 5486 5484 5482 5480 5478 5476 5475 5473 5471 5470 5468 5466 5464 5462 5460 5459 5457 5455 5454 5453 5452 5451 5450 5450
5508 5507 5506 5506 5505 5504 5503 5502 5501 5500 5498 5497 5495 5494 5492 5491 5489 5487 5485 5484 5482 5480 5478 5476 5474 5473 5471 5469 5468 5466 5464 5463 5461 5459 5457 5456 5454 5453 5452 5451 5450 5449 5448 5447
5503 5502 5502 5501 5500 5499 5498 5497 5496 5495 5494 5493 5491 5490 5488 5487 5485 5483 5482 5480 5478 5477 5475 5473 5471 5469 5468 5466 5464 5463 5461 5459 5458 5456 5455 5454 5453 5451 5450 5449 5448 5447 5446 5445
5498 5497 5497 5497 5496 5495 5494 5493 5492 5491 5490 5489 5487 5486 5484 5483 5481 5480 5478 5477 5475 5474 5472 5470 5468 5466 5465 5463 5461 5460 5458 5457 5455 5454 5453 5452 5451 5450 5448 5447 5446 5446 5444 5443
5493 5493 5493 5492 5492 5491 5490 5489 5488 5487 5486 5485 5484 5482 5481 5479 5478 5476 5475 5473 5472 5470 5469 5467 5465 5463 5462 5460 5458 5457 5455 5454 5453 5452 5451 5450 5448 5447 5446 5445 5445 5444 5443 5442
5489 5489 5489 5488 5488 5487 5487 5486 5485 5484 5483 5481 5480 5478 5477 5476 5474 5473 5471 5470 5468 5467 5465 5464 5462 5461 5459 5457 5455 5454 5452 5451 5450 5449 5448 5447 5446 5445 5444 5443 5442 5441 5441 5440
5486 5486 5485 5485 5484 5484 5483 5482 5481 5480 5479 5478 5477 5475 5474 5472 5471 5469 5468 5467 5465 5464 5462 5461 5459 5458 5456 5455 5453 5451 5450 5448 5447 5446 5445 5444 5443 5442 5441 5441 5440 5439 5438 5438
5482 5482 5482 5482 5481 5480 5480 5479 5478 5477 5476 5475 5473 5472 5470 5469 5468 5466 5465 5463 5462 5461 5459 5458 5456 5455 5454 5452 5451 5449 5448 5446 5445 5444 5443 5442 5441 5440 5439 5438 5438 5437 5436 5435
5479 5479 5478 5478 5478 5477 5477 5476 5475 5474 5473 5471 5470 5468 5467 5466 5464 5463 5462 5460 5459 5457 5456 5455 5453 5452 5450 5449 5448 5447 5445 5444 5443 5442 5441 5440 5439 5438 5437 5436 5435 5434 5433 5432
5475 5475 5475 5475 5474 5474 5473 5473 5472 5471 5469 5468 5467 5465 5464 5462 5461 5460 5458 5457 5456 5454 5453 5451 5450 5448 5447 5446 5445 5443 5442 5441 5440 5439 5438 5438 5437 5436 5435 5434 5433 5432 5431 5430
5471 5471 5471 5471 5470 5470 5469 5469 5468 5467 5466 5465 5463 5461 5460 5458 5457 5456 5454 5453 5452 5450 5449 5447 5446 5445 5443 5442 5441 5440 5439 5438 5437 5437 5436 5435 5434 5433 5432 5432 5431 5430 5429 5427
5467 5467 5467 5467 5466 5466 5465 5465 5464 5463 5462 5461 5459 5457 5456 5454 5453 5452 5451 5449 5448 5446 5445 5443 5442 5441 5439 5438 5437 5436 5435 5434 5434 5434 5433 5432 5432 5431 5430 5429 5428 5427 5426 5425
5463 5463 5463 5462 5462 5461 5461 5460 5459 5458 5457 5456 5455 5453 5452 5450 5449 5448 5447 5445 5444 5442 5441 5439 5438 5437 5436 5434 5433 5433 5432 5431 5431 5430 5430 5429 5429 5428 5427 5427 5426 5425 5424 5423